Back to catalog

STARLINK-31189

AliveCommunicationsVLEO
NORAD 58787·PAYLOAD·🇺🇸 United States

Launched Jan 15, 2024 from Cape Canaveral Space Force Station

Loading…

Next Passes (next 24 hours)

TLE

FreshSource: CelesTrak SupGP

Epoch: Sep 14, 2026, 21:19 UTC

1 58787C 24012A   26257.88868056 -.00026212  00000+0 -94919-3 0  2571
2 58787  42.9999 176.3903 0001413 265.1163 170.3509 15.27598595    13

Track STARLINK-31189 in real time with AllMySat

Download on the App Store